"Platform","Stannard Rock Light Station"
"Latitude (deg)",47.18350
"Longitude (deg)",-87.22512
"Water Depth (m)",1.2
"Sensor Device","System Power Controller board voltage input"
"Sensor Type","Buoy battery voltage"
"Sensor Units","voltage"
"Measurement","A sample"
"Time means","Time at sample (UTC time zone)"

"Note:","This data was collected for research purposes."
"Note:","Minimal quality checking has been performed so data may contain known or unknown errors."
"Note:","Data provided by NOAA. Please credit NOAA."
"Note:","For more info see www.glerl.noaa.gov/res/recon"

"Time (UTC)","Battery"
"YYYY/MM/DD HH:MM","volts"
2016/11/02 17:31, 13.48
2016/11/02 18:01, 13.47
2016/11/02 18:31, 13.42
2016/11/02 19:01, 13.40
2016/11/02 19:31, 13.09
2016/11/02 20:01, 13.42
2016/11/02 20:31, 13.12
2016/11/02 21:01, 13.09
2016/11/02 21:31, 12.88
2016/11/02 22:01, 12.79
2016/11/02 22:31, 12.66
2016/11/02 23:01, 12.67
2016/11/02 23:31, 12.60
2016/11/03 00:01, 12.63
2016/11/03 00:31, 12.57
2016/11/03 01:01, 12.61
2016/11/03 01:31, 12.54
2016/11/03 02:01, 12.59
2016/11/03 02:31, 12.54
2016/11/03 03:01, 12.56
2016/11/03 03:31, 12.50
2016/11/03 04:01, 12.55
2016/11/03 04:31, 12.48
2016/11/03 05:01, 12.54
2016/11/03 05:31, 12.46
2016/11/03 06:01, 12.50
2016/11/03 06:31, 12.45
2016/11/03 07:01, 12.48
2016/11/03 07:31, 12.43
2016/11/03 08:01, 12.46
2016/11/03 08:31, 12.42
2016/11/03 09:01, 12.45
2016/11/03 09:31, 12.40
2016/11/03 10:01, 12.44
2016/11/03 10:31, 12.39
2016/11/03 11:01, 12.43
2016/11/03 11:31, 12.37
2016/11/03 12:01, 12.43
2016/11/03 12:31, 12.37
2016/11/03 13:01, 12.43
2016/11/03 13:31, 12.40
2016/11/03 14:01, 12.49
2016/11/03 14:31, 12.52
2016/11/03 15:01, 12.83
2016/11/03 15:31, 13.94
2016/11/03 16:01, 13.51
2016/11/03 16:31, 13.24
2016/11/03 17:01, 13.22
2016/11/03 17:31, 13.75
2016/11/03 18:01, 14.02
2016/11/03 18:31, 13.69
2016/11/03 19:01, 13.48
2016/11/03 19:31, 13.76
2016/11/03 20:01, 13.10
2016/11/03 20:31, 12.86
2016/11/03 21:01, 12.75
2016/11/03 21:31, 12.66
2016/11/03 22:01, 12.61
2016/11/03 22:31, 12.57
2016/11/03 23:01, 12.61
2016/11/03 23:31, 12.55
2016/11/04 00:01, 12.59
2016/11/04 00:31, 12.53
2016/11/04 01:01, 12.55
2016/11/04 01:31, 12.49
2016/11/04 02:01, 12.54
2016/11/04 02:31, 12.46
2016/11/04 03:01, 12.49
2016/11/04 03:31, 12.44
2016/11/04 04:01, 12.47
2016/11/04 04:31, 12.42
2016/11/04 05:01, 12.44
2016/11/04 05:31, 12.39
2016/11/04 06:01, 12.43
2016/11/04 06:31, 12.36
2016/11/04 07:01, 12.40
2016/11/04 07:31, 12.34
2016/11/04 08:01, 12.39
2016/11/04 08:31, 12.34
2016/11/04 09:01, 12.38
2016/11/04 09:31, 12.34
2016/11/04 10:01, 12.39
2016/11/04 10:31, 12.34
2016/11/04 11:01, 12.37
2016/11/04 11:31, 12.34
2016/11/04 12:01, 12.38
2016/11/04 12:31, 12.34
2016/11/04 13:01, 13.28
2016/11/04 13:31, 14.18
2016/11/04 14:01, 14.16
2016/11/04 14:31, 14.12
2016/11/04 15:01, 14.08
2016/11/04 15:31, 13.67
2016/11/04 16:01, 13.62
2016/11/04 16:31, 13.57
2016/11/04 17:01, 13.47
2016/11/04 17:31, 13.47
2016/11/04 18:01, 13.42
2016/11/04 18:31, 13.41
2016/11/04 19:01, 13.09
2016/11/04 19:31, 12.94
2016/11/04 20:01, 12.93
2016/11/04 20:31, 12.83
2016/11/04 21:01, 12.83
2016/11/04 21:31, 12.72
2016/11/04 22:01, 12.74
2016/11/04 22:31, 12.64
2016/11/04 23:01, 12.65
2016/11/04 23:31, 12.61
2016/11/05 00:01, 12.62
2016/11/05 00:31, 12.57
2016/11/05 01:01, 12.60
2016/11/05 01:31, 12.55
2016/11/05 02:01, 12.58
2016/11/05 02:31, 12.53
2016/11/05 03:01, 12.55
2016/11/05 03:31, 12.50
2016/11/05 04:01, 12.55
2016/11/05 04:31, 12.47
2016/11/05 05:01, 12.52
2016/11/05 05:31, 12.47
2016/11/05 06:01, 12.51
2016/11/05 06:31, 12.45
2016/11/05 07:01, 12.47
2016/11/05 07:31, 12.43
2016/11/05 08:01, 12.46
2016/11/05 08:31, 12.42
2016/11/05 09:01, 12.44
2016/11/05 09:31, 12.39
2016/11/05 10:01, 12.43
2016/11/05 10:31, 12.37
2016/11/05 11:01, 12.41
2016/11/05 11:31, 12.36
2016/11/05 12:01, 12.41
2016/11/05 12:31, 12.35
2016/11/05 13:01, 13.41
2016/11/05 13:31, 14.08
2016/11/05 14:01, 14.05
2016/11/05 14:31, 14.04
2016/11/05 15:01, 13.99
2016/11/05 15:31, 13.59
2016/11/05 16:01, 13.52
2016/11/05 16:31, 13.48
2016/11/05 17:01, 13.41
2016/11/05 17:31, 13.40
2016/11/05 18:01, 13.36
2016/11/05 18:31, 13.33
2016/11/05 19:01, 13.14
2016/11/05 19:31, 12.96
2016/11/05 20:01, 12.93
2016/11/05 20:31, 12.84
2016/11/05 21:01, 12.83
2016/11/05 21:31, 12.72
2016/11/05 22:01, 12.74
2016/11/05 22:31, 12.64
2016/11/05 23:01, 12.65
2016/11/05 23:31, 12.60
2016/11/06 00:01, 12.62
2016/11/06 00:31, 12.56
2016/11/06 01:01, 12.58
2016/11/06 01:31, 12.54
2016/11/06 02:01, 12.56
2016/11/06 02:31, 12.50
2016/11/06 03:01, 12.54
2016/11/06 03:31, 12.48
2016/11/06 04:01, 12.53
2016/11/06 04:31, 12.46
2016/11/06 05:01, 12.49
2016/11/06 05:31, 12.45
2016/11/06 06:01, 12.48
2016/11/06 06:31, 12.43
2016/11/06 07:01, 12.46
2016/11/06 07:31, 12.42
2016/11/06 08:01, 12.44
2016/11/06 08:31, 12.39
2016/11/06 09:01, 12.42
2016/11/06 09:31, 12.37
2016/11/06 10:01, 12.42
2016/11/06 10:31, 12.35
2016/11/06 11:01, 12.39
2016/11/06 11:31, 12.34
2016/11/06 12:01, 12.39
2016/11/06 12:31, 12.34
2016/11/06 13:01, 13.01
2016/11/06 13:31, 14.10
2016/11/06 14:01, 14.08
2016/11/06 14:31, 14.04
2016/11/06 15:01, 13.99
2016/11/06 15:31, 13.58
2016/11/06 16:01, 13.53
2016/11/06 16:31, 13.47
2016/11/06 17:01, 13.43
2016/11/06 17:31, 13.40
2016/11/06 18:01, 13.40
2016/11/06 18:31, 13.33
2016/11/06 19:01, 13.18
2016/11/06 19:31, 12.98
2016/11/06 20:01, 12.98
2016/11/06 20:31, 12.85
2016/11/06 21:01, 12.84
2016/11/06 21:31, 12.75
2016/11/06 22:01, 12.75
2016/11/06 22:31, 12.64
2016/11/06 23:01, 12.66
2016/11/06 23:31, 12.60
2016/11/07 00:01, 12.63
2016/11/07 00:31, 12.57
2016/11/07 01:01, 12.60
2016/11/07 01:31, 12.55
2016/11/07 02:01, 12.58
2016/11/07 02:31, 12.53
2016/11/07 03:01, 12.55
2016/11/07 03:31, 12.50
2016/11/07 04:01, 12.55
2016/11/07 04:31, 12.47
2016/11/07 05:01, 12.52
2016/11/07 05:31, 12.46
2016/11/07 06:01, 12.51
2016/11/07 06:31, 12.45
2016/11/07 07:01, 12.47
2016/11/07 07:31, 12.43
2016/11/07 08:01, 12.47
2016/11/07 08:31, 12.42
2016/11/07 09:01, 12.43
2016/11/07 09:31, 12.39
2016/11/07 10:01, 12.42
2016/11/07 10:31, 12.37
2016/11/07 11:01, 12.40
2016/11/07 11:31, 12.35
2016/11/07 12:01, 12.40
2016/11/07 12:31, 12.35
2016/11/07 13:01, 13.21
2016/11/07 13:31, 14.05
2016/11/07 14:01, 14.01
2016/11/07 14:31, 13.97
2016/11/07 15:01, 13.95
2016/11/07 15:31, 13.54
2016/11/07 16:01, 13.49
2016/11/07 16:31, 13.45
2016/11/07 17:01, 13.41
2016/11/07 17:31, 13.40
2016/11/07 18:01, 13.35
2016/11/07 18:31, 13.33
2016/11/07 19:01, 13.34
2016/11/07 19:31, 13.17
2016/11/07 20:01, 13.40
2016/11/07 20:31, 13.05
2016/11/07 21:01, 12.94
2016/11/07 21:31, 12.81
2016/11/07 22:01, 12.72
2016/11/07 22:31, 12.63
2016/11/07 23:01, 12.57
2016/11/07 23:31, 12.56
2016/11/08 00:01, 12.55
2016/11/08 00:31, 12.54
2016/11/08 01:01, 12.52
2016/11/08 01:31, 12.50
2016/11/08 02:01, 12.49
2016/11/08 02:31, 12.48
2016/11/08 03:01, 12.46
2016/11/08 03:31, 12.46
2016/11/08 04:01, 12.44
2016/11/08 04:31, 12.43
2016/11/08 05:01, 12.47
2016/11/08 05:31, 12.40
2016/11/08 06:01, 12.45
2016/11/08 06:31, 12.37
2016/11/08 07:01, 12.42
2016/11/08 07:31, 12.35
2016/11/08 08:01, 12.41
2016/11/08 08:31, 12.34
2016/11/08 09:01, 12.39
2016/11/08 09:31, 12.32
2016/11/08 10:01, 12.37
2016/11/08 10:31, 12.32
2016/11/08 11:01, 12.37
2016/11/08 11:31, 12.32
2016/11/08 12:01, 12.38
2016/11/08 12:31, 12.31
2016/11/08 13:01, 12.36
2016/11/08 13:31, 12.29
2016/11/08 14:01, 12.37
2016/11/08 14:31, 12.31
2016/11/08 15:01, 12.35
2016/11/08 15:31, 12.30
2016/11/08 16:01, 12.37
2016/11/08 16:31, 12.38
2016/11/08 17:01, 12.48
2016/11/08 17:31, 12.62
2016/11/08 18:01, 13.17
2016/11/08 18:31, 13.03
2016/11/08 19:01, 12.90
2016/11/08 19:31, 12.78
2016/11/08 20:01, 12.89
2016/11/08 20:31, 12.73
2016/11/08 21:01, 12.71
2016/11/08 21:31, 12.61
2016/11/08 22:01, 12.60
2016/11/08 22:31, 12.47
2016/11/08 23:01, 12.47
2016/11/08 23:31, 12.37
2016/11/09 00:01, 12.40
2016/11/09 00:31, 12.30
2016/11/09 01:01, 12.34
2016/11/09 01:31, 12.28
2016/11/09 02:01, 12.34
2016/11/09 02:31, 12.28
2016/11/09 03:01, 12.33
2016/11/09 03:31, 12.27
2016/11/09 04:01, 12.33
2016/11/09 04:31, 12.27
2016/11/09 05:01, 12.31
2016/11/09 05:31, 12.27
2016/11/09 06:01, 12.31
2016/11/09 06:31, 12.27
2016/11/09 07:01, 12.29
2016/11/09 07:31, 12.26
2016/11/09 08:01, 12.29
2016/11/09 08:31, 12.24
2016/11/09 09:01, 12.27
2016/11/09 09:31, 12.21
2016/11/09 10:01, 12.28
2016/11/09 10:31, 12.20
2016/11/09 11:01, 12.27
2016/11/09 11:31, 12.19
2016/11/09 12:01, 12.27
2016/11/09 12:31, 12.19
2016/11/09 13:01, 12.90
2016/11/09 13:31, 13.10
2016/11/09 14:01, 14.16
2016/11/09 14:31, 14.07
2016/11/09 15:01, 14.04
2016/11/09 15:31, 13.99
2016/11/09 16:01, 13.93
2016/11/09 16:31, 13.93
2016/11/09 17:01, 13.47
2016/11/09 17:31, 13.45
2016/11/09 18:01, 13.40
2016/11/09 18:31, 13.31
2016/11/09 19:01, 12.96
2016/11/09 19:31, 12.91
2016/11/09 20:01, 12.92
2016/11/09 20:31, 12.80
2016/11/09 21:01, 12.71
2016/11/09 21:31, 12.67
2016/11/09 22:01, 12.62
2016/11/09 22:31, 12.60
2016/11/09 23:01, 12.63
2016/11/09 23:31, 12.56
2016/11/10 00:01, 12.61
2016/11/10 00:31, 12.54
2016/11/10 01:01, 12.58
2016/11/10 01:31, 12.52
2016/11/10 02:01, 12.57
2016/11/10 02:31, 12.49
2016/11/10 03:01, 12.55
2016/11/10 03:31, 12.48
2016/11/10 04:01, 12.55
2016/11/10 04:31, 12.47
2016/11/10 05:01, 12.54
2016/11/10 05:31, 12.46
2016/11/10 06:01, 12.53
2016/11/10 06:31, 12.45
2016/11/10 07:01, 12.50
2016/11/10 07:31, 12.44
2016/11/10 08:01, 12.50
2016/11/10 08:31, 12.43
2016/11/10 09:01, 12.47
2016/11/10 09:31, 12.42
2016/11/10 10:01, 12.47
2016/11/10 10:31, 12.42
2016/11/10 11:01, 12.45
2016/11/10 11:31, 12.40
2016/11/10 12:01, 12.45
2016/11/10 12:31, 12.38
2016/11/10 13:01, 12.94
2016/11/10 13:31, 13.85
2016/11/10 14:01, 14.06
2016/11/10 14:31, 14.01
2016/11/10 15:01, 13.99
2016/11/10 15:31, 13.96
2016/11/10 16:01, 13.55
2016/11/10 16:31, 13.47
2016/11/10 17:01, 13.42
2016/11/10 17:31, 13.38
2016/11/10 18:01, 13.39
2016/11/10 18:31, 13.31
2016/11/10 19:01, 13.07
2016/11/10 19:31, 13.10
2016/11/10 20:01, 12.96
2016/11/10 20:31, 12.75
2016/11/10 21:01, 12.79
2016/11/10 21:31, 12.66
2016/11/10 22:01, 12.70
2016/11/10 22:31, 12.59
2016/11/10 23:01, 12.63
2016/11/10 23:31, 12.56
2016/11/11 00:01, 12.61
2016/11/11 00:31, 12.54
2016/11/11 01:01, 12.58
2016/11/11 01:31, 12.51
2016/11/11 02:01, 12.57
2016/11/11 02:31, 12.48
2016/11/11 03:01, 12.54
2016/11/11 03:31, 12.46
2016/11/11 04:01, 12.54
2016/11/11 04:31, 12.44
2016/11/11 05:01, 12.49
2016/11/11 05:31, 12.43
2016/11/11 06:01, 12.48
2016/11/11 06:31, 12.41
2016/11/11 07:01, 12.45
2016/11/11 07:31, 12.39
2016/11/11 08:01, 12.44
2016/11/11 08:31, 12.37
2016/11/11 09:01, 12.42
2016/11/11 09:31, 12.35
2016/11/11 10:01, 12.42
2016/11/11 10:31, 12.33
2016/11/11 11:01, 12.39
2016/11/11 11:31, 12.32
2016/11/11 12:01, 12.38
2016/11/11 12:31, 12.30
2016/11/11 13:01, 12.37
2016/11/11 13:31, 12.37
2016/11/11 14:01, 12.59
2016/11/11 14:31, 12.85
2016/11/11 15:01, 13.22
2016/11/11 15:31, 13.39
2016/11/11 16:01, 13.30
2016/11/11 16:31, 13.40
2016/11/11 17:01, 14.21
2016/11/11 17:31, 13.59
2016/11/11 18:01, 13.64
2016/11/11 18:31, 14.15
2016/11/11 19:01, 13.85
2016/11/11 19:31, 13.29
2016/11/11 20:01, 13.57
2016/11/11 20:31, 12.98
2016/11/11 21:01, 12.91
2016/11/11 21:31, 12.71
2016/11/11 22:01, 12.71
2016/11/11 22:31, 12.59
2016/11/11 23:01, 12.62
2016/11/11 23:31, 12.55
2016/11/12 00:01, 12.61
2016/11/12 00:31, 12.52
2016/11/12 01:01, 12.56
2016/11/12 01:31, 12.48
2016/11/12 02:01, 12.55
2016/11/12 02:31, 12.47
2016/11/12 03:01, 12.53
2016/11/12 03:31, 12.45
2016/11/12 04:01, 12.52
2016/11/12 04:31, 12.44
2016/11/12 05:01, 12.48
2016/11/12 05:31, 12.42
2016/11/12 06:01, 12.47
2016/11/12 06:31, 12.40
2016/11/12 07:01, 12.44
2016/11/12 07:31, 12.36
2016/11/12 08:01, 12.43
2016/11/12 08:31, 12.34
2016/11/12 09:01, 12.38
2016/11/12 09:31, 12.31
2016/11/12 10:01, 12.36
2016/11/12 10:31, 12.29
2016/11/12 11:01, 12.35
2016/11/12 11:31, 12.28
2016/11/12 12:01, 12.35
2016/11/12 12:31, 12.28
2016/11/12 13:01, 12.40
2016/11/12 13:31, 12.46
2016/11/12 14:01, 14.23
2016/11/12 14:31, 14.20
2016/11/12 15:01, 14.18
2016/11/12 15:31, 14.15
2016/11/12 16:01, 14.12
2016/11/12 16:31, 14.06
2016/11/12 17:01, 13.61
2016/11/12 17:31, 13.59
2016/11/12 18:01, 13.57
2016/11/12 18:31, 13.40
2016/11/12 19:01, 13.52
2016/11/12 19:31, 13.07
2016/11/12 20:01, 13.48
2016/11/12 20:31, 12.90
2016/11/12 21:01, 12.84
2016/11/12 21:31, 12.71
2016/11/12 22:01, 12.73
2016/11/12 22:31, 12.62
2016/11/12 23:01, 12.66
2016/11/12 23:31, 12.58
2016/11/13 00:01, 12.63
2016/11/13 00:31, 12.55
2016/11/13 01:01, 12.60
2016/11/13 01:31, 12.54
2016/11/13 02:01, 12.57
2016/11/13 02:31, 12.51
2016/11/13 03:01, 12.55
2016/11/13 03:31, 12.48
2016/11/13 04:01, 12.55
2016/11/13 04:31, 12.47
2016/11/13 05:01, 12.53
2016/11/13 05:31, 12.46
2016/11/13 06:01, 12.52
2016/11/13 06:31, 12.44
2016/11/13 07:01, 12.48
2016/11/13 07:31, 12.43
2016/11/13 08:01, 12.47
2016/11/13 08:31, 12.41
2016/11/13 09:01, 12.45
2016/11/13 09:31, 12.37
2016/11/13 10:01, 12.43
2016/11/13 10:31, 12.35
2016/11/13 11:01, 12.40
2016/11/13 11:31, 12.33
2016/11/13 12:01, 12.39
2016/11/13 12:31, 12.32
2016/11/13 13:01, 12.65
2016/11/13 13:31, 13.90
2016/11/13 14:01, 14.14
2016/11/13 14:31, 14.11
2016/11/13 15:01, 14.06
2016/11/13 15:31, 14.04
2016/11/13 16:01, 13.59
2016/11/13 16:31, 13.52
2016/11/13 17:01, 13.46
2016/11/13 17:31, 13.43
2016/11/13 18:01, 13.41
2016/11/13 18:31, 13.40
2016/11/13 19:01, 13.18
2016/11/13 19:31, 12.85
2016/11/13 20:01, 12.92
2016/11/13 20:31, 12.75
2016/11/13 21:01, 12.80
2016/11/13 21:31, 12.66
2016/11/13 22:01, 12.71
2016/11/13 22:31, 12.61
2016/11/13 23:01, 12.63
2016/11/13 23:31, 12.57
2016/11/14 00:01, 12.61
2016/11/14 00:31, 12.54
2016/11/14 01:01, 12.59
2016/11/14 01:31, 12.52
2016/11/14 02:01, 12.57
2016/11/14 02:31, 12.49
2016/11/14 03:01, 12.55
2016/11/14 03:31, 12.47
2016/11/14 04:01, 12.54
2016/11/14 04:31, 12.46
2016/11/14 05:01, 12.52
2016/11/14 05:31, 12.44
2016/11/14 06:01, 12.50
2016/11/14 06:31, 12.42
2016/11/14 07:01, 12.47
2016/11/14 07:31, 12.42
2016/11/14 08:01, 12.46
2016/11/14 08:31, 12.39
2016/11/14 09:01, 12.43
2016/11/14 09:31, 12.36
2016/11/14 10:01, 12.42
2016/11/14 10:31, 12.34
2016/11/14 11:01, 12.38
2016/11/14 11:31, 12.32
2016/11/14 12:01, 12.38
2016/11/14 12:31, 12.30
2016/11/14 13:01, 12.47
2016/11/14 13:31, 13.55
2016/11/14 14:01, 13.07
2016/11/14 14:31, 12.81
2016/11/14 15:01, 12.79
2016/11/14 15:31, 12.70
2016/11/14 16:01, 12.82
2016/11/14 16:31, 12.72
2016/11/14 17:01, 12.78
2016/11/14 17:31, 12.82
2016/11/14 18:01, 12.83
2016/11/14 18:31, 12.70
2016/11/14 19:01, 12.75
2016/11/14 19:31, 12.67
2016/11/14 20:01, 12.74
2016/11/14 20:31, 12.58
2016/11/14 21:01, 12.60
2016/11/14 21:31, 12.50
2016/11/14 22:01, 12.53
2016/11/14 22:31, 12.42
2016/11/14 23:01, 12.43
2016/11/14 23:31, 12.34
2016/11/15 00:01, 12.38
2016/11/15 00:31, 12.29
2016/11/15 01:01, 12.34
2016/11/15 01:31, 12.28
2016/11/15 02:01, 12.34
2016/11/15 02:31, 12.28
2016/11/15 03:01, 12.33
2016/11/15 03:31, 12.28
2016/11/15 04:01, 12.34
2016/11/15 04:31, 12.27
2016/11/15 05:01, 12.33
2016/11/15 05:31, 12.27
2016/11/15 06:01, 12.34
2016/11/15 06:31, 12.27
2016/11/15 07:01, 12.32
2016/11/15 07:31, 12.27
2016/11/15 08:01, 12.30
2016/11/15 08:31, 12.27
2016/11/15 09:01, 12.30
2016/11/15 09:31, 12.27
2016/11/15 10:01, 12.29
2016/11/15 10:31, 12.26
2016/11/15 11:01, 12.28
2016/11/15 11:31, 12.22
2016/11/15 12:01, 12.28
2016/11/15 12:31, 12.20
2016/11/15 13:01, 12.27
2016/11/15 13:31, 12.19
2016/11/15 14:01, 12.28
2016/11/15 14:31, 12.23
2016/11/15 15:01, 12.32
2016/11/15 15:31, 12.59
2016/11/15 16:01, 13.27
2016/11/15 16:31, 12.79
2016/11/15 17:01, 12.82
2016/11/15 17:31, 12.64
2016/11/15 18:01, 12.65
2016/11/15 18:31, 12.56
2016/11/15 19:01, 12.56
2016/11/15 19:31, 12.50
2016/11/15 20:01, 12.46
2016/11/15 20:31, 12.35
2016/11/15 21:01, 12.35
2016/11/15 21:31, 12.27
2016/11/15 22:01, 12.29
2016/11/15 22:31, 12.21
2016/11/15 23:01, 12.27
2016/11/15 23:31, 12.19
2016/11/16 00:01, 12.27
2016/11/16 00:31, 12.17
2016/11/16 01:01, 12.27
2016/11/16 01:31, 12.17
2016/11/16 02:01, 12.27
2016/11/16 02:31, 12.16
2016/11/16 03:01, 12.27
2016/11/16 03:31, 12.16
2016/11/16 04:01, 12.27
2016/11/16 04:31, 12.16
2016/11/16 05:01, 12.22
2016/11/16 05:31, 12.16
2016/11/16 06:01, 12.23
2016/11/16 06:31, 12.15
2016/11/16 07:01, 12.20
2016/11/16 07:31, 12.13
2016/11/16 08:01, 12.20
2016/11/16 08:31, 12.13
2016/11/16 09:01, 12.18
2016/11/16 09:31, 12.13
2016/11/16 10:01, 12.18
2016/11/16 10:31, 12.11
2016/11/16 11:01, 12.17
2016/11/16 11:31, 12.11
2016/11/16 12:01, 12.17
2016/11/16 12:31, 12.10
2016/11/16 13:01, 12.58
2016/11/16 13:31, 13.60
2016/11/16 14:01, 14.09
2016/11/16 14:31, 14.06
2016/11/16 15:01, 13.41
2016/11/16 15:31, 13.58
2016/11/16 16:01, 14.00
2016/11/16 16:31, 13.90
2016/11/16 17:01, 13.94
2016/11/16 17:31, 13.30
2016/11/16 18:01, 13.42
2016/11/16 18:31, 13.19
2016/11/16 19:01, 13.14
2016/11/16 19:31, 12.89
2016/11/16 20:01, 12.94
2016/11/16 20:31, 12.77
2016/11/16 21:01, 12.82
2016/11/16 21:31, 12.66
2016/11/16 22:01, 12.69
2016/11/16 22:31, 12.60
2016/11/16 23:01, 12.63
2016/11/16 23:31, 12.56
2016/11/17 00:01, 12.62
2016/11/17 00:31, 12.54
2016/11/17 01:01, 12.58
2016/11/17 01:31, 12.52
2016/11/17 02:01, 12.58
2016/11/17 02:31, 12.50
2016/11/17 03:01, 12.54
2016/11/17 03:31, 12.48
2016/11/17 04:01, 12.55
2016/11/17 04:31, 12.47
2016/11/17 05:01, 12.54
2016/11/17 05:31, 12.46
2016/11/17 06:01, 12.53
2016/11/17 06:31, 12.46
2016/11/17 07:01, 12.51
2016/11/17 07:31, 12.44
2016/11/17 08:01, 12.51
2016/11/17 08:31, 12.44
2016/11/17 09:01, 12.48
2016/11/17 09:31, 12.43
2016/11/17 10:01, 12.48
2016/11/17 10:31, 12.43
2016/11/17 11:01, 12.47
2016/11/17 11:31, 12.42
2016/11/17 12:01, 12.48
2016/11/17 12:31, 12.42
2016/11/17 13:01, 12.46
2016/11/17 13:31, 12.42
2016/11/17 14:01, 12.57
2016/11/17 14:31, 12.58
2016/11/17 15:01, 12.71
2016/11/17 15:31, 12.77
2016/11/17 16:01, 12.83
2016/11/17 16:31, 12.88
2016/11/17 17:01, 12.93
2016/11/17 17:31, 12.84
2016/11/17 18:01, 13.02
2016/11/17 18:31, 12.86
2016/11/17 19:01, 12.83
2016/11/17 19:31, 12.71
2016/11/17 20:01, 12.73
2016/11/17 20:31, 12.61
2016/11/17 21:01, 12.64
2016/11/17 21:31, 12.53
2016/11/17 22:01, 12.54
2016/11/17 22:31, 12.44
2016/11/17 23:01, 12.47
2016/11/17 23:31, 12.41
2016/11/18 00:01, 12.45
2016/11/18 00:31, 12.39
2016/11/18 01:01, 12.43
2016/11/18 01:31, 12.38
2016/11/18 02:01, 12.43
2016/11/18 02:31, 12.36
2016/11/18 03:01, 12.42
2016/11/18 03:31, 12.36
2016/11/18 04:01, 12.42
2016/11/18 04:31, 12.35
2016/11/18 05:01, 12.41
2016/11/18 05:31, 12.34
2016/11/18 06:01, 12.40
2016/11/18 06:31, 12.33
2016/11/18 07:01, 12.38
2016/11/18 07:31, 12.33
2016/11/18 08:01, 12.38
2016/11/18 08:31, 12.32
2016/11/18 09:01, 12.36
2016/11/18 09:31, 12.31
2016/11/18 10:01, 12.36
2016/11/18 10:31, 12.29
2016/11/18 11:01, 12.34
2016/11/18 11:31, 12.28
2016/11/18 12:01, 12.34
2016/11/18 12:31, 12.27
2016/11/18 13:01, 12.33
2016/11/18 13:31, 12.27
2016/11/18 14:01, 12.33
2016/11/18 14:31, 12.27
2016/11/18 15:01, 12.32
2016/11/18 15:31, 12.27
2016/11/18 16:01, 12.33
2016/11/18 16:31, 12.27
2016/11/18 17:01, 12.35
2016/11/18 17:31, 12.27
2016/11/18 18:01, 12.34
2016/11/18 18:31, 12.27
2016/11/18 19:01, 12.33
2016/11/18 19:31, 12.27
2016/11/18 20:01, 12.30
2016/11/18 20:31, 12.26
2016/11/18 21:01, 12.27
2016/11/18 21:31, 12.20
2016/11/18 22:01, 12.27
2016/11/18 22:31, 12.18
2016/11/18 23:01, 12.27
2016/11/18 23:31, 12.18
2016/11/19 00:01, 12.27
2016/11/19 00:31, 12.17
2016/11/19 01:01, 12.26
2016/11/19 01:31, 12.16
2016/11/19 02:01, 12.25
2016/11/19 02:31, 12.15
2016/11/19 03:01, 12.20
2016/11/19 03:31, 12.15
2016/11/19 04:01, 12.20
2016/11/19 04:31, 12.13
2016/11/19 05:01, 12.17
2016/11/19 05:31, 12.12
2016/11/19 06:01, 12.17
2016/11/19 06:31, 12.10
2016/11/19 07:01, 12.16
2016/11/19 07:31, 12.08
2016/11/19 08:01, 12.16
2016/11/19 08:31, 12.07
2016/11/19 09:01, 12.13
2016/11/19 09:31, 12.07
2016/11/19 10:01, 12.12
2016/11/19 10:31, 12.06
2016/11/19 11:01, 12.09
2016/11/19 11:31, 12.06
2016/11/19 12:01, 12.09
2016/11/19 12:31, 12.04
2016/11/19 13:01, 12.07
2016/11/19 13:31, 12.05
2016/11/19 14:01, 12.13
2016/11/19 14:31, 12.05
2016/11/19 15:01, 12.27
2016/11/19 15:31, 12.46
2016/11/19 16:01, 12.57
2016/11/19 16:31, 12.46
2016/11/19 17:01, 12.72
2016/11/19 17:31, 12.65
2016/11/19 18:01, 12.72
2016/11/19 18:31, 12.45
2016/11/19 19:01, 12.45
2016/11/19 19:31, 12.30
2016/11/19 20:01, 12.44
2016/11/19 20:31, 12.21
2016/11/19 21:01, 12.16
2016/11/19 21:31, 12.05
2016/11/19 22:01, 12.07
2016/11/19 22:31, 11.99
2016/11/19 23:01, 12.06
2016/11/19 23:31, 11.96
2016/11/20 00:01, 12.06
2016/11/20 00:31, 11.97
2016/11/20 01:01, 12.05
2016/11/20 01:31, 11.97
2016/11/20 02:01, 12.06
2016/11/20 02:31, 11.96
2016/11/20 03:01, 12.03
2016/11/20 03:31, 11.95
2016/11/20 04:01, 12.04
2016/11/20 04:31, 11.94
2016/11/20 05:01, 12.01
2016/11/20 05:31, 11.93
2016/11/20 06:01, 12.01
2016/11/20 06:31, 11.93
2016/11/20 07:01, 11.99
2016/11/20 07:31, 11.92
2016/11/20 08:01, 11.98
2016/11/20 08:31, 11.91
2016/11/20 09:01, 11.97
2016/11/20 09:31, 11.91
2016/11/20 10:01, 11.98
2016/11/20 10:31, 11.90
2016/11/20 11:01, 11.96
2016/11/20 11:31, 11.90
2016/11/20 12:01, 11.96
2016/11/20 12:31, 11.89
2016/11/20 13:01, 11.95
2016/11/20 13:31, 11.89
2016/11/20 14:01, 11.98
2016/11/20 14:31, 11.95
2016/11/20 15:01, 12.05
2016/11/20 15:31, 12.08
2016/11/20 16:01, 12.42
2016/11/20 16:31, 12.32
2016/11/20 17:01, 12.73
2016/11/20 17:31, 12.66
2016/11/20 18:01, 12.61
2016/11/20 18:31, 12.38
2016/11/20 19:01, 12.42
2016/11/20 19:31, 12.28
2016/11/20 20:01, 12.27
2016/11/20 20:31, 12.11
2016/11/20 21:01, 12.07
2016/11/20 21:31, 11.94
2016/11/20 22:01, 11.98
2016/11/20 22:31, 11.90
2016/11/20 23:01, 11.95
2016/11/20 23:31, 11.89
2016/11/21 00:01, 11.96
2016/11/21 00:31, 11.89
2016/11/21 01:01, 11.95
2016/11/21 01:31, 11.88
2016/11/21 02:01, 11.95
2016/11/21 02:31, 11.89
2016/11/21 03:01, 11.94
2016/11/21 03:31, 11.88
2016/11/21 04:01, 11.94
2016/11/21 04:31, 11.88
2016/11/21 05:01, 11.93
2016/11/21 05:31, 11.88
2016/11/21 06:01, 11.94
2016/11/21 06:31, 11.89
2016/11/21 07:01, 11.92
2016/11/21 07:31, 11.88
2016/11/21 08:01, 11.92
2016/11/21 08:31, 11.88
2016/11/21 09:01, 11.91
2016/11/21 09:31, 11.87
2016/11/21 10:01, 11.91
2016/11/21 10:31, 11.87
2016/11/21 11:01, 11.90
2016/11/21 11:31, 11.87
2016/11/21 12:01, 11.90
2016/11/21 12:31, 11.86
2016/11/21 13:01, 11.89
2016/11/21 13:31, 11.88
2016/11/21 14:01, 12.28
2016/11/21 14:31, 12.63
2016/11/21 15:01, 14.37
2016/11/21 15:31, 12.99
2016/11/21 16:01, 12.97
2016/11/21 16:31, 13.90
2016/11/21 17:01, 13.19
2016/11/21 17:31, 13.43
2016/11/21 18:01, 13.20
2016/11/21 18:31, 12.76
2016/11/21 19:01, 12.72
2016/11/21 19:31, 12.66
2016/11/21 20:01, 12.67
2016/11/21 20:31, 12.58
2016/11/21 21:01, 12.58
2016/11/21 21:31, 12.49
2016/11/21 22:01, 12.50
2016/11/21 22:31, 12.42
2016/11/21 23:01, 12.44
2016/11/21 23:31, 12.39
2016/11/22 00:01, 12.43
2016/11/22 00:31, 12.35
2016/11/22 01:01, 12.40
2016/11/22 01:31, 12.33
2016/11/22 02:01, 12.36
2016/11/22 02:31, 12.30
2016/11/22 03:01, 12.34
2016/11/22 03:31, 12.27
2016/11/22 04:01, 12.33